Wetbulb
43.92 41.32 40.83 46.89 55.55 55.59 54.73 50.89 52.20 56.45 60.77 58.36 55.33 54.49 57.02 59.72 61.40 61.78 62.27 61.94 62.59 63.28 64.88 65.32 66.59 67.14 66.77 66.59 66.06 65.46 65.67 67.10 68.38 64.61 66.09 66.81 67.76 68.73 68.67 68.07 70.21 69.51 68.55 68.95
41.44 38.62 44.49 47.70 51.91 52.44 54.19 51.07 51.11 55.97 60.10 58.48 56.69 55.50 56.94 59.24 58.79 61.08 62.38 62.72 62.26 63.43 64.95 66.33 66.93 66.75 67.09 66.65 66.99 66.56 66.83 67.81 68.61 67.41 67.76 67.88 67.48 69.32 68.29 67.84 67.60 70.72 70.61 69.55
39.59 43.40 47.55 46.47 46.82 53.45 51.00 50.60 51.15 52.09 56.96 58.80 56.29 52.59 55.46 58.40 59.69 59.98 62.17 63.54 64.45 62.77 63.31 65.33 66.44 67.04 67.73 67.31 67.88 67.53 67.67 67.95 68.86 69.14 69.70 68.44 67.74 68.49 69.08 68.48 69.90 70.89 71.33 70.28
41.76 45.76 45.95 43.76 43.71 48.82 46.13 56.05 55.74 56.41 53.24 46.06 55.81 44.01 51.29 55.35 57.38 59.28 60.06 61.39 63.04 64.50 63.24 63.26 66.26 66.97 67.59 68.19 69.10 68.13 68.33 68.41 69.04 69.68 68.56 67.79 66.47 65.55 67.16 68.75 69.40 70.28 72.22 70.80
45.19 46.35 44.08 43.30 44.45 51.37 50.16 56.91 55.45 56.30 50.72 49.76 51.77 46.77 49.08 54.11 53.65 56.96 59.04 59.50 62.39 64.13 64.99 62.40 65.48 66.85 68.32 68.88 67.60 68.99 68.90 68.49 69.71 69.17 68.63 67.81 66.05 65.85 67.62 68.58 69.18 68.59 70.24 70.51
46.95 49.91 47.29 46.98 48.78 52.30 56.37 52.03 50.08 48.36 48.39 41.99 47.16 48.82 45.99 50.30 53.25 56.24 59.17 59.91 61.60 63.94 65.07 65.39 65.31 66.52 67.34 66.91 68.16 69.62 68.47 68.18 69.98 69.34 68.00 67.66 67.17 67.43 67.36 68.34 68.72 67.99 68.65 70.15
44.67 45.98 47.47 49.26 44.15 46.07 47.41 40.21 34.70 38.73 39.88 39.83 43.30 48.75 48.30 55.61 59.02 59.66 59.45 59.66 61.31 63.43 64.69 64.48 64.54 64.40 64.65 65.17 67.87 69.11 68.48 67.65 69.26 70.16 69.08 68.01 67.91 68.16 67.36 67.76 68.67 68.04 68.78 69.07
38.56 39.47 44.45 48.01 46.35 43.01 41.39 39.62 35.17 32.02 31.71 35.62 44.99 42.53 49.00 56.44 59.79 62.28 62.65 61.67 61.54 62.46 64.07 65.16 64.83 65.42 65.53 65.65 68.00 68.93 69.08 68.02 68.78 69.38 68.92 69.24 69.14 69.10 67.86 68.73 69.14 68.93 68.77 69.64
37.56 40.00 47.14 47.23 46.77 46.45 40.20 38.05 40.30 35.41 35.04 35.47 40.47 49.87 54.37 56.91 55.82 58.59 60.12 60.58 60.43 62.06 63.61 64.66 65.41 66.17 67.34 66.87 67.52 68.20 68.32 68.71 68.91 69.60 69.18 69.00 68.96 69.37 68.37 69.11 68.74 68.57 68.48 68.75
42.48 38.07 42.67 47.04 46.66 45.34 40.94 42.28 36.62 36.57 33.65 32.48 40.70 44.37 45.49 49.23 52.95 55.80 56.56 59.56 60.55 61.48 63.00 64.44 65.43 66.00 67.04 67.97 67.74 68.99 69.02 68.44 69.34 69.67 69.62 68.97 68.72 69.44 69.46 69.30 69.24 68.01 67.73 68.13
40.35 40.13 41.91 47.86 45.94 41.48 46.06 44.02 40.91 40.00 38.76 35.18 34.97 40.40 50.91 50.54 52.15 54.45 56.16 59.41 62.04 60.70 62.33 63.66 65.65 66.45 67.13 67.91 69.08 69.38 69.92 68.65 69.56 69.01 69.40 69.26 68.72 68.79 69.63 69.02 68.70 68.88 69.11 68.85
45.36 39.89 38.43 42.09 49.47 51.37 48.40 44.26 42.13 39.32 38.67 38.75 38.14 40.97 52.51 54.09 54.98 56.14 56.58 60.91 63.15 60.67 62.62 63.87 65.69 65.96 65.88 66.27 68.75 69.42 70.08 69.34 69.80 68.75 68.83 69.63 69.67 69.20 68.94 69.30 68.97 68.83 68.48 69.84
44.60 38.12 34.95 40.06 43.54 46.97 45.94 45.44 41.44 41.78 40.65 38.92 37.77 40.01 51.83 53.98 53.90 57.69 59.91 61.91 62.62 62.22 64.58 64.96 65.74 65.78 65.93 65.70 67.34 68.45 68.99 67.27 68.02 68.60 68.72 68.83 68.85 68.72 69.14 69.34 69.30 69.60 68.74 69.87
51.50 39.77 38.85 35.96 38.70 43.53 42.85 45.98 44.92 42.15 39.02 38.88 40.80 43.00 48.45 52.67 56.48 58.25 58.60 60.05 62.37 63.73 64.19 64.44 65.18 66.29 65.16 65.03 64.72 66.75 67.70 67.86 68.26 68.42 67.88 68.09 68.24 68.69 69.12 69.57 69.47 69.18 69.90 69.58
45.40 42.38 42.66 43.34 46.30 46.94 45.99 46.15 46.18 42.66 42.42 41.85 41.26 44.54 47.48 50.52 54.52 57.29 58.68 60.18 61.90 63.69 64.15 63.79 64.61 65.08 65.42 65.19 64.83 65.90 65.97 66.71 68.06 67.93 67.59 66.17 65.94 65.58 66.22 67.77 68.83 69.57 70.02 69.77
44.25 42.17 42.67 42.79 47.27 46.85 45.63 47.00 47.26 47.07 46.17 44.97 44.98 45.58 51.04 53.29 56.59 57.41 57.38 58.05 59.81 61.32 63.15 64.70 64.67 65.29 65.15 65.76 64.57 65.70 65.38 65.41 67.16 66.76 66.02 67.99 66.73 66.71 65.66 66.91 67.47 68.20 68.67 68.72
43.61 43.46 39.88 37.25 44.69 44.68 39.38 44.27 46.68 47.55 48.87 47.47 43.47 47.23 53.23 51.03 53.82 55.62 57.69 58.76 59.05 60.87 62.31 63.51 64.77 64.63 65.54 65.68 65.37 65.04 65.65 65.74 65.97 66.37 66.18 67.25 67.18 65.90 65.30 67.32 67.34 67.22 66.66 67.68
40.32 40.46 39.11 36.17 39.18 33.14 41.56 48.87 51.38 48.78 51.13 50.68 50.42 51.86 54.37 54.78 56.20 56.95 56.48 58.09 60.89 62.03 62.92 64.10 64.63 64.99 65.88 66.47 66.35 65.68 65.22 65.33 65.53 66.95 67.03 66.82 66.64 65.41 65.68 66.85 67.25 66.61 66.64 67.02
40.47 42.71 39.07 37.31 35.92 39.92 46.18 49.42 48.74 47.23 46.72 51.92 51.31 53.89 55.41 58.77 59.09 59.16 60.44 62.36 62.26 63.30 64.22 64.33 64.81 65.19 65.21 66.16 66.55 65.87 64.70 66.21 66.68 66.66 66.33 66.45 66.39 65.53 65.53 65.99 67.22 66.72 65.21 64.69
43.32 42.15 41.40 37.22 35.46 35.37 43.47 50.96 54.08 51.71 42.80 51.99 54.64 55.09 56.05 58.79 52.16 57.75 60.21 62.30 62.72 63.87 63.56 63.12 63.73 64.02 63.93 64.26 66.53 66.08 65.59 65.87 65.54 65.90 66.25 67.40 66.68 66.64 66.68 67.00 65.78 64.73 63.22 61.05
38.92 39.14 37.13 37.91 36.24 41.48 49.03 53.11 54.22 42.27 43.51 54.81 55.16 55.29 54.61 52.90 55.03 60.66 61.68 61.76 62.42 62.88 62.30 62.12 62.37 61.55 62.36 63.71 64.54 64.94 65.39 63.40 64.53 65.35 65.53 65.37 65.55 64.83 64.83 64.12 63.76 62.66 61.19 59.19
39.07 37.79 36.96 37.69 35.28 37.00 52.92 53.38 47.88 49.49 51.54 54.42 54.81 54.99 53.78 56.01 59.98 61.30 60.82 60.54 61.63 61.32 61.86 62.00 60.84 60.62 61.67 62.65 63.09 61.99 61.55 63.08 63.94 63.92 63.89 64.25 64.24 64.41 63.87 62.86 62.05 61.09 60.43 58.65
39.44 41.71 40.18 41.17 41.08 48.14 50.10 50.87 51.97 52.70 53.06 54.83 54.34 56.14 57.27 57.60 58.53 61.42 60.19 60.12 60.42 61.57 61.44 61.80 60.67 60.36 60.87 61.88 62.43 61.28 61.67 62.76 62.90 62.81 62.24 61.92 61.15 61.68 62.30 62.37 61.25 59.80 59.14 57.99
44.70 44.69 42.28 43.25 45.66 48.12 50.39 53.46 54.70 54.49 54.01 56.55 57.38 56.25 55.93 55.04 60.12 59.94 59.65 59.74 60.37 60.85 60.80 61.56 61.08 60.36 60.14 61.07 61.61 61.94 62.26 62.32 62.15 61.15 58.41 55.53 53.39 50.88 49.82 49.86 50.75 54.60 58.35 58.49
46.13 45.08 43.28 43.26 47.51 50.42 52.50 53.99 54.69 56.85 57.60 56.22 59.03 59.50 57.11 58.28 59.54 59.16 58.47 58.29 59.42 60.61 60.79 60.91 60.74 60.36 60.34 61.39 61.71 61.78 61.61 61.67 59.99 59.07 55.75 51.13 48.22 47.29 46.13 45.28 45.95 47.01 44.64 46.24
46.24 43.86 43.30 44.62 49.31 49.84 50.73 54.40 56.06 56.43 56.41 56.13 57.81 59.62 60.87 60.68 58.63 59.30 58.10 58.46 58.86 59.17 57.13 59.16 60.11 60.09 60.25 60.86 60.61 60.09 60.42 61.09 59.71 57.07 54.02 49.50 46.86 44.70 44.73 45.08 44.95 46.06 44.52 43.10
MSLP
1008.52 1009.45 1009.76 1010.00 1010.09 1009.76 1010.38 1010.94 1011.12 1011.27 1011.30 1011.87 1012.24 1012.66 1012.64 1012.80 1012.86 1012.95 1013.08 1012.95 1013.57 1013.88 1013.82 1014.20 1014.70 1015.03 1015.67 1015.84 1016.06 1016.26 1016.62 1016.69 1016.85 1017.24 1017.52 1017.58 1017.50 1017.52 1017.62 1017.25 1017.27 1017.55 1017.52 1017.37
1009.07 1009.16 1008.86 1009.20 1009.64 1009.80 1010.09 1010.43 1010.65 1010.92 1010.99 1011.58 1012.00 1012.36 1012.43 1012.74 1012.79 1012.54 1012.75 1012.81 1012.86 1013.38 1013.72 1014.07 1014.56 1014.87 1015.10 1015.59 1015.88 1016.15 1016.37 1016.57 1016.51 1016.95 1017.24 1017.32 1017.36 1017.40 1017.55 1017.38 1017.29 1017.35 1017.41 1017.39
1008.86 1008.05 1007.72 1008.42 1008.94 1009.33 1009.68 1009.94 1010.30 1010.45 1011.11 1011.35 1011.97 1012.39 1012.44 1012.29 1012.59 1012.56 1012.60 1012.48 1012.51 1012.76 1013.01 1013.43 1014.08 1014.40 1014.75 1015.19 1015.48 1015.74 1015.79 1016.26 1016.38 1016.85 1017.21 1017.25 1017.24 1017.23 1017.58 1017.64 1017.44 1017.21 1017.17 1017.08
1008.25 1007.54 1007.39 1007.53 1008.11 1008.33 1009.08 1008.68 1009.45 1010.41 1011.41 1011.78 1011.94 1012.72 1012.41 1012.42 1012.47 1012.52 1012.42 1012.73 1012.66 1012.43 1012.75 1013.05 1013.37 1013.84 1014.26 1014.46 1015.03 1015.42 1015.57 1015.68 1016.12 1016.65 1016.82 1017.01 1017.26 1017.61 1017.41 1017.46 1017.23 1017.00 1017.03 1017.14
1007.49 1006.90 1006.65 1006.77 1006.70 1007.05 1007.63 1007.89 1009.22 1010.46 1012.04 1012.34 1012.59 1013.00 1012.17 1012.26 1012.12 1011.75 1011.78 1011.84 1012.12 1012.36 1012.37 1012.40 1012.66 1012.96 1013.40 1014.03 1014.59 1014.85 1015.29 1015.67 1015.75 1016.32 1016.68 1016.92 1017.28 1017.44 1017.39 1017.36 1017.38 1017.33 1017.32 1017.55
1006.97 1006.09 1005.85 1005.54 1005.79 1006.37 1006.98 1008.71 1010.28 1011.76 1012.81 1013.24 1012.27 1012.91 1012.44 1012.17 1011.53 1010.92 1011.02 1010.95 1011.05 1011.52 1012.00 1012.16 1012.39 1012.68 1013.19 1013.81 1014.48 1014.80 1015.11 1015.50 1015.68 1016.09 1016.32 1016.66 1017.02 1017.26 1017.31 1017.38 1017.57 1017.48 1017.36 1017.35
1006.93 1006.02 1005.29 1004.90 1005.57 1006.62 1007.50 1009.52 1011.68 1013.25 1013.87 1013.52 1012.58 1012.88 1011.75 1011.22 1010.79 1010.63 1010.62 1010.57 1010.50 1010.82 1011.28 1011.96 1012.35 1012.70 1013.01 1013.50 1014.17 1014.58 1014.82 1015.25 1015.60 1015.84 1016.03 1016.30 1016.70 1017.09 1017.15 1017.05 1017.29 1017.56 1017.42 1017.28
1007.64 1006.63 1005.61 1005.01 1005.22 1006.32 1007.84 1009.28 1011.02 1012.56 1013.82 1013.40 1012.86 1012.31 1010.99 1010.79 1010.62 1010.44 1010.40 1009.78 1010.00 1010.23 1010.88 1011.29 1011.40 1012.31 1012.59 1013.12 1013.59 1014.01 1014.69 1014.77 1015.30 1015.56 1015.86 1016.05 1016.29 1016.68 1016.86 1016.94 1017.00 1017.12 1017.15 1017.03
1007.74 1007.01 1005.72 1005.42 1005.34 1006.11 1007.96 1009.19 1009.83 1011.86 1013.28 1013.34 1013.04 1012.14 1010.93 1010.48 1010.49 1010.42 1010.20 1009.63 1009.58 1009.72 1009.96 1010.47 1011.19 1011.85 1012.27 1013.15 1013.18 1013.33 1014.10 1014.50 1014.70 1015.14 1015.46 1015.80 1015.99 1016.26 1016.58 1016.72 1016.77 1016.80 1016.87 1016.89
1007.30 1007.65 1006.80 1006.25 1005.92 1006.87 1007.50 1009.06 1010.49 1012.00 1013.51 1013.97 1013.45 1012.65 1011.57 1010.72 1010.75 1010.43 1010.22 1009.96 1009.92 1010.26 1010.05 1010.10 1010.56 1011.36 1012.14 1012.55 1012.72 1012.87 1013.24 1013.81 1013.99 1014.76 1015.17 1015.50 1015.75 1016.03 1016.18 1016.44 1016.69 1016.62 1016.63 1016.70
1007.45 1008.10 1008.23 1007.64 1008.39 1008.41 1008.73 1009.80 1011.38 1012.73 1013.69 1014.08 1013.91 1012.85 1010.94 1010.75 1010.74 1010.55 1010.42 1010.03 1009.62 1009.94 1009.63 1009.61 1010.13 1010.64 1011.23 1011.94 1012.47 1012.73 1013.14 1013.53 1013.82 1014.22 1014.77 1015.17 1015.47 1015.75 1015.96 1016.15 1016.34 1016.56 1016.54 1016.67
1007.59 1009.01 1010.10 1010.22 1009.83 1009.39 1009.62 1010.88 1011.80 1013.14 1014.35 1014.48 1014.01 1012.17 1010.82 1010.76 1010.56 1010.74 1010.43 1009.92 1009.38 1009.45 1009.58 1009.75 1010.08 1010.51 1011.13 1011.82 1012.46 1012.71 1013.23 1013.29 1013.65 1014.13 1014.54 1014.88 1015.29 1015.66 1015.84 1015.89 1016.01 1016.19 1016.38 1016.62
1007.53 1009.56 1011.02 1011.48 1010.89 1010.27 1010.65 1011.27 1012.03 1012.88 1013.69 1014.19 1014.13 1012.12 1010.89 1010.67 1010.68 1010.50 1010.31 1010.06 1009.67 1009.53 1009.84 1009.94 1010.36 1010.80 1011.28 1011.62 1012.46 1012.73 1012.91 1013.31 1013.78 1014.13 1014.58 1014.66 1014.95 1015.43 1015.58 1015.68 1015.74 1016.00 1016.15 1016.32
1007.30 1010.29 1011.15 1011.50 1011.25 1011.11 1011.36 1011.39 1011.73 1012.54 1013.61 1013.90 1013.13 1011.89 1011.00 1011.06 1011.12 1011.00 1010.66 1010.42 1010.07 1010.02 1010.24 1010.48 1010.73 1011.09 1011.49 1012.07 1012.60 1012.95 1013.02 1013.16 1012.88 1013.39 1014.42 1014.73 1014.62 1014.87 1015.17 1015.43 1015.63 1015.83 1016.02 1016.27
1008.26 1010.53 1011.31 1011.33 1011.25 1011.25 1011.18 1011.37 1011.78 1012.30 1012.45 1012.95 1012.35 1012.01 1011.22 1011.47 1011.59 1011.41 1011.10 1010.78 1010.61 1010.41 1010.50 1010.52 1011.09 1011.32 1011.91 1012.57 1012.99 1013.18 1013.42 1013.53 1013.37 1013.79 1014.08 1014.75 1015.01 1015.19 1015.43 1015.52 1015.44 1015.47 1015.75 1015.91
1009.28 1010.99 1011.79 1012.08 1011.61 1011.38 1011.30 1011.12 1011.43 1011.67 1011.86 1012.14 1012.02 1011.91 1011.57 1011.69 1011.80 1011.95 1011.66 1011.33 1010.99 1010.83 1010.64 1011.18 1011.13 1011.49 1012.15 1012.61 1012.70 1013.18 1013.37 1013.82 1013.50 1013.59 1013.86 1014.32 1015.00 1015.35 1015.61 1015.89 1015.76 1015.55 1015.61 1015.79
1009.86 1011.18 1012.67 1012.92 1012.33 1011.89 1011.53 1010.71 1010.65 1010.91 1011.05 1011.35 1011.62 1011.36 1011.56 1011.89 1012.25 1012.32 1012.04 1011.57 1011.17 1011.11 1010.87 1010.82 1011.17 1011.42 1011.93 1012.19 1012.67 1013.27 1013.74 1013.85 1013.69 1013.85 1014.47 1014.68 1014.60 1015.01 1015.63 1015.75 1015.73 1015.65 1015.91 1016.14
1010.29 1011.82 1012.78 1013.57 1013.04 1012.50 1010.95 1010.33 1010.16 1010.47 1010.46 1010.76 1011.14 1011.35 1011.55 1011.91 1012.32 1012.36 1011.84 1011.91 1011.61 1011.68 1011.38 1011.08 1011.24 1011.61 1011.64 1011.85 1012.60 1013.23 1013.59 1013.69 1013.85 1014.19 1014.37 1014.59 1014.60 1014.77 1015.44 1015.81 1016.06 1016.04 1016.16 1016.43
1009.97 1011.60 1013.45 1013.86 1013.46 1012.30 1010.66 1010.14 1009.99 1010.36 1010.24 1010.22 1010.72 1011.42 1011.77 1012.02 1012.17 1012.40 1011.97 1012.01 1011.74 1011.96 1011.90 1012.03 1011.89 1011.82 1011.77 1012.04 1012.37 1012.74 1013.25 1013.60 1013.77 1013.78 1014.02 1014.19 1014.62 1014.88 1015.48 1015.90 1016.25 1016.43 1016.68 1016.85
1010.65 1011.13 1012.55 1014.02 1013.42 1012.19 1010.34 1009.58 1009.53 1010.04 1010.30 1009.85 1010.60 1011.47 1011.99 1012.13 1012.26 1012.19 1012.21 1011.93 1011.92 1012.35 1012.62 1012.47 1011.98 1012.06 1012.50 1012.84 1012.92 1013.27 1013.38 1012.99 1013.03 1013.38 1013.61 1014.02 1014.38 1014.92 1015.27 1015.79 1016.12 1016.70 1017.09 1017.59
1011.29 1012.40 1013.27 1013.61 1013.00 1011.66 1009.78 1009.38 1009.38 1010.33 1010.62 1010.15 1010.55 1011.10 1011.65 1011.91 1011.81 1011.84 1012.14 1012.09 1012.20 1012.38 1012.81 1012.89 1012.96 1013.20 1013.22 1013.35 1013.30 1013.46 1013.71 1014.10 1013.99 1013.83 1014.04 1014.12 1014.23 1014.69 1015.24 1015.89 1016.32 1016.80 1017.52 1018.04
1011.09 1012.23 1013.38 1013.79 1012.75 1011.06 1009.43 1009.69 1009.53 1009.76 1010.09 1010.30 1010.67 1011.12 1011.51 1011.57 1011.94 1012.11 1012.46 1012.84 1012.75 1012.95 1013.14 1013.28 1013.68 1013.90 1013.90 1013.74 1013.70 1014.02 1014.12 1014.20 1014.12 1014.51 1014.66 1014.79 1014.96 1015.48 1015.88 1016.14 1016.77 1017.30 1017.72 1018.18
1010.63 1010.75 1011.58 1012.17 1011.18 1009.91 1009.52 1009.59 1009.13 1009.22 1010.06 1010.53 1010.80 1011.01 1011.09 1011.88 1012.36 1012.77 1012.70 1013.48 1013.69 1013.63 1013.93 1013.99 1014.10 1014.28 1014.34 1014.43 1014.34 1014.56 1015.10 1014.98 1015.06 1015.20 1015.61 1015.89 1016.13 1016.36 1016.62 1016.96 1017.59 1018.14 1018.46 1018.82
1009.83 1010.00 1010.60 1011.32 1010.05 1009.57 1009.40 1009.25 1009.17 1009.33 1009.89 1010.20 1010.50 1010.89 1011.35 1012.09 1012.65 1013.08 1013.51 1013.98 1014.05 1014.17 1014.35 1014.48 1014.67 1014.79 1015.01 1015.23 1015.28 1015.45 1015.53 1015.49 1015.55 1016.17 1016.46 1016.92 1017.18 1017.71 1017.80 1018.16 1018.49 1018.93 1019.25 1019.49
1008.98 1009.48 1010.18 1010.29 1009.78 1009.10 1008.74 1008.93 1009.03 1009.42 1009.98 1010.17 1010.56 1011.06 1011.45 1012.07 1012.66 1013.17 1013.73 1013.90 1014.21 1014.55 1014.90 1015.08 1015.32 1015.51 1015.48 1015.70 1015.86 1015.76 1015.77 1015.78 1016.13 1016.70 1017.18 1017.64 1018.13 1018.38 1018.72 1019.33 1019.58 1019.69 1019.96 1020.15
1008.04 1008.42 1008.90 1008.90 1008.23 1008.15 1008.04 1008.05 1008.56 1009.33 1009.76 1010.06 1010.73 1011.17 1011.41 1012.00 1012.60 1013.07 1013.70 1013.96 1014.49 1014.99 1015.35 1015.46 1015.68 1015.85 1015.97 1016.10 1016.08 1016.05 1016.07 1016.23 1016.64 1017.22 1017.70 1018.14 1018.71 1019.13 1019.58 1019.98 1020.23 1020.16 1020.21 1020.18
Wind_Speed
3 5 6 10 8 5 4 4 3 2 7 6 8 4 7 5 3 7 5 16 16 16 16 13 11 10 6 5 5 6 7 7 4 2 1 1 1 1 1 2 4 5 5 4
6 3 9 7 5 6 5 3 2 1 9 5 6 9 8 7 6 6 7 6 15 14 14 13 11 11 10 8 7 6 7 7 5 3 1 1 2 1 2 2 3 4 4 3
6 8 3 7 6 4 4 7 4 4 5 3 3 4 4 5 4 5 6 5 5 9 16 16 14 14 11 11 11 10 9 8 6 6 3 3 2 2 2 2 3 4 5 2
6 5 6 5 5 10 5 12 7 6 5 3 5 4 4 4 7 6 8 7 5 7 7 11 16 14 14 14 11 9 8 8 6 7 3 4 4 3 3 2 2 3 4 3
8 4 4 4 8 10 12 9 13 5 4 2 2 2 5 2 7 8 9 9 9 9 9 11 17 17 16 13 12 11 8 6 7 7 6 5 3 2 1 1 2 2 2 4
8 4 4 7 3 6 5 8 8 7 3 3 6 6 5 3 5 4 9 13 13 11 8 6 8 13 13 10 10 9 9 7 6 7 7 7 6 3 2 2 3 2 2 3
6 4 4 4 1 3 7 7 4 4 2 7 1 5 8 5 6 5 6 11 14 13 10 10 10 13 12 13 12 10 11 8 7 7 7 8 7 6 6 3 4 5 3 2
2 8 2 2 9 8 5 8 7 7 5 5 1 4 5 4 6 3 7 9 12 14 13 13 14 10 14 13 13 13 11 11 8 7 7 6 7 5 4 5 4 4 4 4
4 6 5 3 3 9 3 4 5 8 3 3 2 4 6 4 3 1 3 1 11 15 15 14 11 9 9 9 14 16 14 11 10 8 6 7 6 7 6 5 3 3 4 3
4 3 3 6 3 5 5 4 3 5 3 2 4 4 5 1 2 6 7 5 5 8 9 11 13 15 12 13 12 14 14 14 11 8 8 7 7 6 6 5 6 6 4 3
4 3 7 5 7 3 6 4 7 6 3 5 1 7 6 5 4 5 6 7 9 8 12 10 12 13 14 7 8 9 9 9 10 9 7 7 6 6 6 6 6 6 3 5
2 6 5 1 3 5 5 3 4 6 3 1 3 8 2 5 6 5 7 8 10 5 9 9 9 11 9 8 7 10 7 7 5 5 5 6 5 5 6 6 7 6 6 5
5 3 4 7 8 4 6 1 3 5 4 5 6 7 2 3 4 4 5 5 5 1 5 7 10 11 10 8 6 7 9 9 8 6 4 6 6 6 7 7 6 6 6 6
10 4 6 8 6 4 2 3 0 4 4 4 7 4 3 3 2 4 3 4 3 4 4 4 8 9 9 7 5 4 5 7 9 8 4 4 6 7 6 6 5 5 6 5
6 4 4 4 3 4 4 4 6 5 5 6 4 6 5 1 3 5 3 2 2 5 6 7 8 9 7 5 5 4 3 4 6 8 8 4 4 4 4 4 6 6 6 6
3 3 2 1 3 2 3 5 6 5 3 6 5 6 2 2 3 6 1 2 4 2 4 6 8 9 9 9 8 7 6 4 6 7 6 9 6 3 1 5 7 5 5 4
4 8 4 4 3 5 5 5 4 3 4 6 6 7 2 3 4 2 3 2 5 3 4 5 8 8 7 9 10 8 6 5 4 4 2 6 7 6 4 2 2 4 4 6
6 6 3 3 3 2 6 4 5 6 5 5 1 3 4 4 5 3 1 1 3 4 3 6 6 4 3 7 8 7 5 5 4 4 6 5 5 6 5 3 2 4 3 4
3 7 4 5 4 5 2 4 4 5 7 9 7 2 3 6 5 2 3 2 7 6 4 5 7 3 3 3 6 8 9 4 5 4 3 4 5 5 5 5 4 3 4 5
6 7 6 3 4 6 7 4 5 5 8 6 7 6 5 6 6 3 4 7 10 8 8 8 7 5 8 7 6 5 5 9 7 5 3 5 5 4 6 6 6 4 5 6
4 4 5 2 2 6 6 4 5 4 9 6 7 7 7 6 4 5 5 7 9 8 10 7 8 5 5 5 7 8 6 6 6 6 7 7 7 7 7 6 6 7 8 7
7 6 3 3 1 7 5 2 7 6 1 4 4 5 5 3 7 8 7 6 10 9 8 7 6 5 5 6 7 8 8 5 7 8 8 8 9 7 6 9 7 7 7 8
2 7 7 8 9 6 1 3 3 4 4 5 5 4 7 7 5 8 9 8 7 9 7 6 5 6 6 6 7 9 4 6 6 9 9 9 9 8 7 7 6 5 4 5
1 3 5 3 4 7 1 4 4 3 3 5 4 6 5 8 7 9 8 7 8 7 6 6 5 5 5 5 5 5 5 6 9 9 9 7 8 7 8 6 5 4 3 4
5 6 6 2 4 4 4 6 4 3 6 7 5 4 5 6 6 7 6 7 7 7 6 5 5 4 5 4 4 4 5 7 8 8 7 7 5 6 7 7 4 3 3 2
5 8 6 7 9 7 7 7 6 7 8 9 9 7 4 6 7 6 6 6 6 7 4 5 5 5 4 4 4 4 5 6 7 7 5 5 5 4 4 5 5 11 9 10
Wind_Direction
4 89 193 193 211 234 163 192 193 139 171 165 196 228 223 193 210 155 161 184 181 195 204 203 201 180 174 197 232 206 174 201 165 124 140 276 229 146 208 240 209 224 207 209
22 231 222 190 202 245 223 233 248 181 169 166 173 222 230 175 215 181 172 182 175 191 188 197 195 190 178 201 217 225 208 190 186 155 155 191 141 218 151 239 250 253 266 199
160 235 126 176 178 180 217 213 176 183 163 215 126 295 187 236 189 206 193 186 171 176 187 184 186 192 182 197 208 211 212 193 182 144 156 83 45 37 116 194 233 232 234 301
220 252 215 222 203 191 204 210 204 158 129 229 149 276 267 215 227 196 220 188 194 191 151 189 186 187 192 200 206 207 214 183 181 163 173 148 173 180 236 173 229 239 205 240
258 275 179 188 222 156 227 170 199 118 92 336 279 84 267 108 240 217 203 220 186 208 175 178 189 193 198 188 199 203 197 198 171 165 184 174 160 212 264 210 189 248 274 216
240 243 209 208 157 174 85 79 46 53 69 351 235 152 278 215 231 248 205 206 196 193 172 161 189 197 186 177 186 190 183 189 175 175 180 169 177 201 219 267 183 222 252 258
322 273 290 195 25 65 73 68 25 12 25 226 111 119 242 246 243 235 275 223 201 187 167 173 182 188 177 164 175 179 180 182 193 192 185 174 189 191 212 237 210 180 210 247
80 332 284 273 186 165 172 151 154 183 189 235 110 225 252 222 291 253 263 248 188 179 182 185 182 182 176 175 168 172 200 184 194 197 199 189 176 186 204 207 186 201 206 216
143 277 305 223 164 124 198 186 182 105 4 75 248 295 297 247 169 217 319 5 191 188 184 180 169 177 152 196 187 181 184 201 187 206 183 194 187 183 198 212 195 201 225 232
192 312 340 296 28 26 112 150 50 8 143 251 309 288 245 277 346 328 338 339 218 206 208 187 168 179 186 201 196 189 181 189 189 185 197 197 196 204 188 183 192 210 216 199
130 114 307 37 3 283 16 22 56 109 106 157 211 264 221 222 223 256 299 292 289 210 200 181 184 169 173 162 178 184 182 171 186 180 189 198 202 199 188 186 174 208 205 210
334 123 78 106 320 16 87 100 108 116 229 57 141 269 273 245 246 240 274 291 289 199 190 184 164 154 147 148 149 193 177 159 169 182 191 193 200 203 203 201 198 192 214 195
188 33 87 352 335 352 60 58 116 104 71 198 144 259 159 350 274 257 256 308 3 124 128 144 148 149 144 139 167 158 147 127 123 109 201 195 197 198 210 216 207 199 216 210
87 101 149 183 204 163 194 238 118 125 127 184 227 267 265 25 14 287 326 16 84 94 123 137 124 137 138 140 148 139 145 152 128 103 108 222 203 199 210 215 209 208 212 232
99 140 171 204 192 184 225 195 197 188 201 172 281 219 267 298 326 308 312 95 84 126 113 127 143 129 135 149 135 135 134 182 145 140 132 101 79 44 354 269 223 208 203 211
23 164 102 163 295 54 274 259 204 222 206 257 254 284 81 19 355 6 19 103 108 143 137 126 133 139 160 166 165 168 173 214 167 165 137 149 150 159 316 268 244 204 146 158
120 134 114 248 16 338 326 263 203 221 204 185 210 217 176 94 63 349 317 274 170 172 135 166 165 172 194 182 165 180 192 193 188 128 194 179 143 152 211 308 242 126 131 119
131 100 89 181 31 242 237 263 237 216 233 210 291 215 182 163 150 162 150 223 32 18 320 90 111 113 158 156 158 143 163 166 177 187 185 157 139 139 184 236 115 118 99 103
98 125 102 141 185 273 280 211 166 178 276 187 202 174 141 131 121 84 129 103 100 80 41 62 73 72 50 71 148 161 161 156 204 177 151 102 138 154 177 195 157 78 85 80
73 76 105 131 164 204 233 302 196 127 283 165 147 160 166 158 170 169 160 112 91 87 88 84 68 43 45 30 67 99 117 197 176 153 151 142 148 156 154 156 128 106 99 96
32 17 113 141 195 285 239 276 162 107 246 177 168 171 161 177 194 140 127 96 93 88 89 88 78 65 50 43 88 105 106 45 39 69 92 104 107 106 109 107 114 114 110 105
156 124 178 88 85 276 159 73 163 207 213 184 157 174 154 109 128 113 112 100 96 89 85 72 66 57 48 51 94 90 81 75 72 61 56 81 85 88 87 100 98 100 114 108
93 172 178 163 215 248 110 257 289 115 142 169 176 160 161 121 94 114 109 105 112 107 104 97 85 71 47 47 69 81 64 90 78 79 76 59 56 63 62 78 82 90 91 111
114 161 105 115 261 243 264 295 280 126 144 139 141 122 119 122 140 137 126 136 124 114 108 102 102 90 91 76 81 102 107 98 96 84 80 72 81 72 65 59 52 62 82 97
188 135 146 262 314 356 286 213 233 130 120 106 93 130 144 144 140 139 140 124 120 122 121 126 119 114 105 104 97 102 107 103 97 99 96 88 75 78 79 68 58 85 79 18
181 166 147 214 202 168 231 197 158 170 164 136 148 148 178 153 135 121 131 126 129 122 119 116 123 125 131 125 101 82 85 108 109 103 100 108 110 104 103 108 82 54 61 47